Concordia, KS

11:09 AM CDT on April 28, 2017 (GMT -0500)
Blosser Municipal

Weather History for KCNK - August, 2014

Change the Weather History Date:

Thursday, August 28, 2014

  Actual Average Record
Temperature  
Mean Temperature 75 °F 75 °F  
Max Temperature 80 °F 87 °F 107 °F (2000)
Min Temperature 69 °F 63 °F 48 °F (1976)
Degree Days  
Heating Degree Days 0 0  
Month to date heating degree days 0 0  
Since 1 June heating degree days 3 13  
Since 1 July heating degree days 2 0  
Cooling Degree Days 10 10  
Month to date cooling degree days 350 347  
Year to date cooling degree days 1174 1137  
Since 1 June cooling degree days 999 1048  
Growing Degree Days 24 (Base 50)    
Moisture  
Dew Point 70 °F    
Average Humidity 80    
Maximum Humidity 93    
Minimum Humidity 67    
Precipitation  
Precipitation 0.41 in 0.10 in 2.20 in (1960)
Month to date precipitation 5.56 2.86  
Year to date precipitation 19.23 20.82  
Snow  
Snow 0.00 in 0.00 in T in (1945)
Month to date snowfall 0.0 0.0  
Year to date snowfall 16.9 13.7  
Since 1 July snowfall 0.0 0.0  
Snow Depth 0.00 in    
Sea Level Pressure  
Sea Level Pressure 29.89 in    
Wind  
Wind Speed 11 mph (South)    
Max Wind Speed 26 mph    
Max Gust Speed 36 mph    
Visibility 8 miles    
Events Rain , Thunderstorm    
T = Trace of Precipitation, MM = Missing Value Source: NWS Daily Summary

Daily Weather History Graph

Daily Weather History Graph

Search for Another Location

Airport or City:

Trip Planner

Search our weather history database for the weather conditions in past years. The results will help you decide how hot, cold, wet, or windy it might be!

Date:

Astronomy

Aug. 28, 2014 Rise Set
Actual Time 6:55 AM CDT 8:07 PM CDT
Civil Twilight 6:27 AM CDT 8:35 PM CDT
Nautical Twilight 5:54 AM CDT 9:08 PM CDT
Astronomical Twilight 5:19 AM CDT 9:43 PM CDT
Moon 9:48 AM CDT 9:33 PM CDT
Length of Visible Light 14h 08m
Length of Day
13h 12m
Waxing Crescent, 9% of the Moon is Illuminated
Aug 28
Waxing Crescent
Sep 2
First Quarter
Sep 8
Full
Sep 15
Last Quarter
Sep 24
New

Hourly Weather History & Observations

Time (CDT) Temp. Heat Index Dew Point Humidity Pressure Visibility Wind Dir Wind Speed Gust Speed Precip Events Conditions
12:55 AM 73.9 °F - 72.0 °F 93% 29.93 in 10.0 mi ESE 5.8 mph - 0.00 in   Overcast
1:55 AM 73.9 °F - 72.0 °F 93% 29.93 in 10.0 mi WNW 10.4 mph - N/A Thunderstorm Overcast
2:02 AM 73.9 °F - 72.0 °F 93% 29.98 in 10.0 mi WNW 8.1 mph - N/A Thunderstorm Thunderstorm
2:10 AM 73.9 °F - 72.0 °F 93% 29.96 in 1.8 mi Calm Calm - 0.03 in Rain , Thunderstorm Heavy Thunderstorms and Rain
2:12 AM 73.0 °F - 73.0 °F 100% 29.96 in 1.2 mi Calm Calm - 0.08 in Rain , Thunderstorm Heavy Rain
2:19 AM 73.9 °F - 73.0 °F 97% 29.96 in 1.8 mi SSW 4.6 mph - 0.16 in Rain , Thunderstorm Light Thunderstorms and Rain
2:22 AM 73.0 °F - 73.0 °F 100% 29.96 in 4.0 mi SSE 4.6 mph - 0.16 in Rain , Thunderstorm Light Thunderstorms and Rain
2:47 AM 73.0 °F - 72.0 °F 96% 29.94 in 10.0 mi SE 5.8 mph - 0.16 in   Overcast
2:55 AM 73.9 °F - 72.0 °F 93% 29.89 in 10.0 mi SSE 5.8 mph - 0.16 in   Mostly Cloudy
3:55 AM 73.0 °F - 71.1 °F 93% 29.88 in 10.0 mi SSE 5.8 mph - N/A   Mostly Cloudy
4:55 AM 73.0 °F - 70.0 °F 90% 29.87 in 10.0 mi South 9.2 mph - N/A   Overcast
5:55 AM 73.0 °F - 70.0 °F 90% 29.88 in 9.0 mi South 17.3 mph - 0.01 in Rain Light Rain
6:55 AM 71.1 °F - 69.1 °F 93% 29.90 in 10.0 mi West 9.2 mph - 0.02 in Rain Light Rain
7:21 AM 70.0 °F - 69.1 °F 97% 29.96 in 6.0 mi West 9.2 mph - 0.02 in Rain , Thunderstorm Light Rain
7:36 AM 71.1 °F - 68.0 °F 90% 29.95 in 10.0 mi South 10.4 mph - 0.02 in   Overcast
7:55 AM 69.1 °F - 68.0 °F 96% 29.92 in 1.8 mi WSW 9.2 mph - 0.10 in Rain Heavy Rain
7:58 AM 69.1 °F - 66.9 °F 93% 29.95 in 1.5 mi WSW 5.8 mph - 0.04 in Rain , Thunderstorm Heavy Thunderstorms and Rain
8:03 AM 69.1 °F - 66.9 °F 93% 29.95 in 2.0 mi SSW 3.5 mph - 0.07 in Rain , Thunderstorm Heavy Thunderstorms and Rain
8:12 AM 69.1 °F - 68.0 °F 96% 29.95 in 10.0 mi SSW 4.6 mph - 0.07 in Thunderstorm Thunderstorm
8:19 AM 69.1 °F - 68.0 °F 96% 29.94 in 10.0 mi SE 4.6 mph - 0.07 in   Overcast
8:55 AM 70.0 °F - 69.1 °F 97% 29.88 in 10.0 mi SE 9.2 mph - 0.07 in   Clear
9:55 AM 75.0 °F - 69.1 °F 82% 29.88 in 10.0 mi SE 13.8 mph 23.0 mph N/A   Clear
10:55 AM 75.9 °F - 70.0 °F 82% 29.88 in 10.0 mi South 12.7 mph - N/A   Scattered Clouds
11:55 AM 77.0 °F - 70.0 °F 79% 29.89 in 10.0 mi South 15.0 mph 25.3 mph N/A   Partly Cloudy
12:55 PM 75.9 °F - 68.0 °F 76% 29.89 in 10.0 mi South 16.1 mph - N/A   Mostly Cloudy
1:55 PM 75.9 °F - 70.0 °F 82% 29.88 in 10.0 mi South 10.4 mph - N/A   Overcast
2:55 PM 78.1 °F - 69.1 °F 74% 29.85 in 10.0 mi South 11.5 mph 24.2 mph N/A   Scattered Clouds
3:55 PM 78.1 °F - 69.1 °F 74% 29.84 in 10.0 mi SSW 17.3 mph - N/A   Partly Cloudy
4:55 PM 78.1 °F - 68.0 °F 71% 29.82 in 10.0 mi SSW 12.7 mph - N/A   Clear
5:55 PM 80.1 °F 82.7 °F 68.0 °F 67% 29.80 in 10.0 mi South 17.3 mph - N/A   Clear
6:55 PM 79.0 °F - 69.1 °F 72% 29.80 in 10.0 mi South 11.5 mph - N/A   Clear
7:55 PM 75.0 °F - 70.0 °F 84% 29.81 in 10.0 mi SSW 6.9 mph - N/A   Clear
8:55 PM 73.9 °F - 69.1 °F 85% 29.81 in 10.0 mi SSW 9.2 mph - N/A   Partly Cloudy
9:55 PM 75.0 °F - 68.0 °F 79% 29.81 in 10.0 mi SSW 11.5 mph - 0.00 in   Partly Cloudy
10:24 PM 73.0 °F - 68.0 °F 84% 29.85 in 7.0 mi South 17.3 mph 25.3 mph 0.01 in Rain , Thunderstorm Thunderstorms and Rain
10:51 PM 73.4 °F - 68.0 °F 83% 29.83 in 10.0 mi South 11.5 mph - 0.05 in Rain Light Rain
10:55 PM 72.0 °F - 68.0 °F 87% 29.79 in 10.0 mi South 11.5 mph - 0.05 in Rain Light Rain
11:55 PM 72.0 °F - 68.0 °F 87% 29.79 in 10.0 mi SSW 9.2 mph - 0.00 in   Clear